This is the latest recevied weather packets stored in our database for station/object VK4TW-13. If no packets are shown the sender has not sent any weather packets the latest 10 day(s).
| Time | Temp. | Humidity | Pressure | Rain* | Wind** | Luminosity | Snow |
|---|---|---|---|---|---|---|---|
| 1778219242 | 24.44° C | 38% | 1015.8 hPa | 0 mm | - | - | - |
| 1778218640 | 24.44° C | 37% | 1015.7 hPa | 0 mm | - | - | - |
| 1778218044 | 24.44° C | 40% | 1015.7 hPa | 0 mm | - | - | - |
| 1778217438 | 24.44° C | 40% | 1015.6 hPa | 0 mm | - | - | - |
| 1778216841 | 25° C | 36% | 1015.5 hPa | 0 mm | - | - | - |
| 1778216239 | 25° C | 39% | 1015.6 hPa | 0 mm | - | - | - |
| 1778215637 | 25° C | 40% | 1015.7 hPa | 0 mm | - | - | - |
| 1778215035 | 25° C | 39% | 1015.7 hPa | 0 mm | - | - | - |
| 1778214435 | 25.56° C | 37% | 1015.7 hPa | 0 mm | - | - | - |
| 1778213833 | 25.56° C | 38% | 1015.9 hPa | 0 mm | - | - | - |
| 1778213232 | 25.56° C | 38% | 1015.9 hPa | 0 mm | - | - | - |
| 1778212632 | 25.56° C | 37% | 1016 hPa | 0 mm | - | - | - |
| 1778212033 | 25.56° C | 36% | 1016.1 hPa | 0 mm | - | - | - |
| 1778211431 | 25.56° C | 38% | 1016.2 hPa | 0 mm | - | - | - |
| 1778210831 | 25.56° C | 40% | 1016.2 hPa | 0 mm | - | - | - |
| 1778210229 | 25° C | 38% | 1016.4 hPa | 0 mm | - | - | - |
| 1778209628 | 24.44° C | 38% | 1016.6 hPa | 0 mm | - | - | - |
| 1778209028 | 24.44° C | 37% | 1016.8 hPa | 0 mm | - | - | - |
| 1778208426 | 24.44° C | 39% | 1017.2 hPa | 0 mm | - | - | - |
| 1778207825 | 24.44° C | 43% | 1017.3 hPa | 0 mm | - | - | - |
| 1778207228 | 24.44° C | 40% | 1017.6 hPa | 0 mm | - | - | - |
| 1778206625 | 24.44° C | 47% | 1017.7 hPa | 0 mm | - | - | - |
| 1778206022 | 23.89° C | 44% | 1017.7 hPa | 0 mm | - | - | - |
| 1778205422 | 23.33° C | 46% | 1018 hPa | 0 mm | - | - | - |
| 1778204821 | 23.33° C | 46% | 1018 hPa | 0 mm | - | - | - |
* Rain since midnight (hover to see other rain measurements)
** Current wind speed in m/s (hover to see current wind gust speed)